Location: Henham
(51.9333°N, 0.2500°E)
Time: 21:15:57
(UTC+00:00)

Cosmos-2242 - Pass Details

Date: 23 October 2019
Orbit: 590 x 618 km, 82.5° (Epoch: 19 November)

Event Time Altitude Azimuth Distance (km) Brightness Sun altitude
Rises 18:35:01 0° 169° (SSE) 2,867 6.3 -17.0°
Reaches altitude 10° 18:37:20 10° 162° (SSE) 1,964 5.4 -17.3°
Maximum altitude 18:41:23 40° 93° (E) 903 3.4 -18.0°
Drops below altitude 10° 18:45:27 10° 24° (NNE) 1,962 5.4 -18.6°
Sets 18:47:45 0° 17° (NNE) 2,866 6.4 -18.9°
